FW8669 Weather Reports


time (UTC)temp
F
wind
direction
speed
knots
gust
knots
rain 1hr
in
rain 24hr
in
rain mn
in
humidity
%
barometer
mb
20260508141558 78 19 4.3 9.6 0.00 0.00 0.00 38 1020.5
20260508141056 78 224 1.7 9.6 0.00 0.00 0.00 38 1020.5
20260508140553 79 335 7.0 9.6 0.00 0.00 0.00 36 1020.8
20260508140049 79 342 7.0 9.6 0.00 0.00 0.00 35 1020.7
20260508135545 79 20 6.1 11.3 0.00 0.00 0.00 35 1020.8
20260508135041 79 42 6.1 9.6 0.00 0.00 0.00 35 1020.8
20260508134538 79 330 6.1 8.7 0.00 0.00 0.00 35 1020.8
20260508134035 79 51 6.1 11.3 0.00 0.00 0.00 34 1020.8
20260508133532 79 17 10.4 13.0 0.00 0.00 0.00 35 1020.7
20260508133029 78 7 4.3 9.6 0.00 0.00 0.00 36 1020.7
20260508132527 79 14 7.8 9.6 0.00 0.00 0.00 34 1020.7
20260508132024 80 29 8.7 9.6 0.00 0.00 0.00 34 1020.9
20260508131519 79 3 6.1 8.7 0.00 0.00 0.00 34 1020.7
20260508131016 79 30 7.8 9.6 0.00 0.00 0.00 31 1021.0
20260508130513 79 55 7.8 8.7 0.00 0.00 0.00 33 1020.9
20260508130009 79 15 2.6 8.7 0.00 0.00 0.00 36 1021.0
20260508125505 79 13 5.2 7.8 0.00 0.00 0.00 32 1020.9
20260508125003 79 14 4.3 8.7 0.00 0.00 0.00 32 1020.8
20260508124501 79 40 3.5 7.8 0.00 0.00 0.00 34 1021.0
20260508123957 79 28 4.3 7.8 0.00 0.00 0.00 32 1021.1
20260508123456 78 289 2.6 6.1 0.00 0.00 0.00 36 1021.0
20260508122952 78 34 4.3 9.6 0.00 0.00 0.00 35 1021.2
20260508122449 78 69 6.1 13.9 0.00 0.00 0.00 38 1021.2
20260508121946 78 34 2.6 11.3 0.00 0.00 0.00 37 1021.3
20260508121444 78 34 9.6 11.3 0.00 0.00 0.00 35 1021.4
20260508120942 79 18 6.1 9.6 0.00 0.00 0.00 35 1021.5
20260508120439 79 10 7.0 9.6 0.00 0.00 0.00 35 1021.5
20260508115937 79 22 4.3 8.7 0.00 0.00 0.00 34 1021.4
20260508115435 78 19 7.8 11.3 0.00 0.00 0.00 35 1021.4
20260508114931 79 23 7.8 13.0 0.00 0.00 0.00 38 1021.4
20260508114428 78 24 3.5 11.3 0.00 0.00 0.00 38 1021.4
20260508113924 78 354 3.5 7.8 0.00 0.00 0.00 39 1021.6
20260508113423 78 30 7.8 9.6 0.00 0.00 0.00 37 1021.4
20260508112919 77 66 7.0 13.9 0.00 0.00 0.00 39 1021.4
20260508112416 77 37 8.7 15.6 0.00 0.00 0.00 36 1021.5
20260508111913 77 33 10.4 13.0 0.00 0.00 0.00 39 1021.6
20260508111410 78 61 6.1 12.2 0.00 0.00 0.00 40 1021.3
20260508110907 77 33 8.7 14.8 0.00 0.00 0.00 40 1021.5
20260508110405 77 31 7.8 13.9 0.00 0.00 0.00 39 1021.7
20260508105904 77 8 13.9 15.6 0.00 0.00 0.00 39 1021.8
20260508105401 77 60 7.8 17.4 0.00 0.00 0.00 40 1021.6
20260508104858 78 40 8.7 13.9 0.00 0.00 0.00 41 1021.6
20260508104355 78 51 7.8 12.2 0.00 0.00 0.00 40 1021.5
20260508103852 77 21 12.2 15.6 0.00 0.00 0.00 42 1021.6
20260508103349 78 342 6.1 12.2 0.00 0.00 0.00 40 1021.7
20260508102847 78 24 10.4 17.4 0.00 0.00 0.00 39 1021.6
20260508102345 77 1 13.9 15.6 0.00 0.00 0.00 40 1021.8
20260508101842 77 108 7.0 13.9 0.00 0.00 0.00 41 1021.7
20260508101339 77 34 10.4 14.8 0.00 0.00 0.00 41 1021.6
20260508100836 77 28 7.8 18.2 0.00 0.00 0.00 41 1021.9
20260508100335 77 8 8.7 17.4 0.00 0.00 0.00 40 1021.8
20260508095830 77 50 10.4 13.0 0.00 0.00 0.00 39 1021.9
20260508095328 78 14 9.6 13.9 0.00 0.00 0.00 39 1021.9
20260508094825 77 66 11.3 14.8 0.00 0.00 0.00 39 1021.8
20260508094322 77 341 13.0 18.2 0.00 0.00 0.00 39 1022.1
20260508093819 77 356 8.7 17.4 0.00 0.00 0.00 40 1021.9
20260508093316 77 40 11.3 13.9 0.00 0.00 0.00 40 1022.1
20260508092813 77 57 10.4 14.8 0.00 0.00 0.00 40 1022.2
20260508092313 77 24 6.1 14.8 0.00 0.00 0.00 40 1022.2
20260508091809 77 9 8.7 17.4 0.00 0.00 0.00 39 1022.2
20260508091306 77 29 7.8 13.9 0.00 0.00 0.00 40 1022.2
20260508090804 77 107 5.2 14.8 0.00 0.00 0.00 39 1022.3
20260508090302 77 52 7.0 12.2 0.00 0.00 0.00 39 1022.4
20260508085757 78 323 12.2 15.6 0.00 0.00 0.00 36 1022.5
20260508085254 77 351 9.6 13.0 0.00 0.00 0.00 37 1022.5
20260508084750 77 11 10.4 13.9 0.00 0.00 0.00 37 1022.5
20260508084248 77 11 7.8 13.0 0.00 0.00 0.00 35 1022.3
20260508083745 77 354 8.7 13.0 0.00 0.00 0.00 36 1022.2
20260508083242 77 346 9.6 15.6 0.00 0.00 0.00 36 1022.6
20260508082737 77 355 11.3 13.0 0.00 0.00 0.00 35 1022.5
20260508082235 77 343 6.1 11.3 0.00 0.00 0.00 36 1022.6
20260508081732 77 357 7.0 11.3 0.00 0.00 0.00 34 1022.6
20260508081228 77 16 9.6 12.2 0.00 0.00 0.00 35 1022.7
20260508080725 76 322 7.8 12.2 0.00 0.00 0.00 36 1022.5
20260508080223 77 326 7.0 8.7 0.00 0.00 0.00 36 1022.6
20260508075719 76 335 7.0 13.0 0.00 0.00 0.00 37 1022.8
20260508075217 76 6 10.4 12.2 0.00 0.00 0.00 35 1022.8
20260508074714 75 316 9.6 11.3 0.00 0.00 0.00 36 1022.7
20260508074212 76 346 8.7 13.9 0.00 0.00 0.00 36 1022.9
20260508073708 76 109 1.7 7.8 0.00 0.00 0.00 36 1022.6
20260508073207 75 348 7.8 12.2 0.00 0.00 0.00 36 1022.9
20260508072702 76 60 3.5 9.6 0.00 0.00 0.00 37 1022.9
20260508072159 75 333 6.1 7.0 0.00 0.00 0.00 36 1022.7
20260508071656 75 315 7.0 11.3 0.00 0.00 0.00 36 1022.7
20260508071155 75 3 7.8 8.7 0.00 0.00 0.00 35 1022.7
20260508070652 75 340 4.3 7.0 0.00 0.00 0.00 35 1022.9
20260508070151 75 333 6.1 11.3 0.00 0.00 0.00 34 1022.9
20260508065647 75 320 5.2 7.0 0.00 0.00 0.00 36 1022.8
20260508065145 75 309 4.3 6.1 0.00 0.00 0.00 33 1022.8
20260508064643 75 355 5.2 7.0 0.00 0.00 0.00 34 1022.8
20260508064141 74 27 4.3 8.7 0.00 0.00 0.00 38 1022.9
20260508063638 74 330 4.3 7.8 0.00 0.00 0.00 39 1022.9
20260508063136 74 341 7.8 9.6 0.00 0.00 0.00 38 1022.8
20260508062633 73 332 3.5 7.0 0.00 0.00 0.00 43 1023.0
20260508062129 73 297 7.8 8.7 0.00 0.00 0.00 42 1023.0
20260508061627 73 322 5.2 7.8 0.00 0.00 0.00 44 1022.7
20260508061124 73 263 6.1 7.0 0.00 0.00 0.00 44 1022.8
20260508060621 73 271 3.5 8.7 0.00 0.00 0.00 44 1022.8
20260508060118 72 348 7.8 9.6 0.00 0.00 0.00 44 1022.6
20260508055613 71 314 7.0 9.6 0.00 0.00 0.00 45 1022.9
20260508055111 72 319 5.2 7.0 0.00 0.00 0.00 45 1022.8
20260508054607 71 286 5.2 8.7 0.00 0.00 0.00 46 1022.6
20260508054105 71 317 7.8 8.7 0.00 0.00 0.00 46 1022.6
20260508053601 70 304 7.8 9.6 0.00 0.00 0.00 46 1022.6
20260508053059 70 316 4.3 9.6 0.00 0.00 0.00 47 1022.7
20260508052556 70 281 2.6 12.2 0.00 0.00 0.00 47 1022.7
20260508052053 70 305 7.8 11.3 0.00 0.00 0.00 46 1022.7
20260508051549 69 300 6.1 8.7 0.00 0.00 0.00 47 1022.8
20260508051045 69 323 4.3 11.3 0.00 0.00 0.00 47 1022.7
20260508050541 69 301 7.8 9.6 0.00 0.00 0.00 48 1022.7
20260508050038 68 288 3.5 7.8 0.00 0.00 0.00 49 1022.5
20260508045534 68 296 7.0 8.7 0.00 0.00 0.00 48 1022.7
20260508045033 68 317 5.2 7.8 0.00 0.00 0.00 49 1022.4
20260508044530 67 302 6.1 7.8 0.00 0.00 0.00 49 1022.3
20260508044025 67 308 9.6 11.3 0.00 0.00 0.00 49 1022.5
20260508043522 67 273 3.5 5.2 0.00 0.00 0.00 50 1022.6
20260508043020 67 292 7.8 8.7 0.00 0.00 0.00 50 1022.7
20260508042516 66 302 4.3 8.7 0.00 0.00 0.00 51 1022.3
20260508042014 66 269 6.1 8.7 0.00 0.00 0.00 51 1022.5
20260508041510 65 314 4.3 8.7 0.00 0.00 0.00 52 1022.2
20260508041007 65 304 7.0 9.6 0.00 0.00 0.00 52 1022.3
20260508040504 64 329 5.2 9.6 0.00 0.00 0.00 52 1022.1
20260508040001 64 321 6.1 11.3 0.00 0.00 0.00 53 1022.1
20260508035458 64 316 6.1 8.7 0.00 0.00 0.00 55 1022.1
20260508034955 64 305 6.1 8.7 0.00 0.00 0.00 56 1021.9
20260508034452 63 322 7.8 11.3 0.00 0.00 0.00 57 1021.9
20260508033949 63 320 7.0 9.6 0.00 0.00 0.00 57 1021.9
20260508033447 63 330 9.6 12.2 0.00 0.00 0.00 58 1021.9
20260508032944 63 290 5.2 11.3 0.00 0.00 0.00 58 1022.0
20260508032441 63 338 6.1 9.6 0.00 0.00 0.00 58 1021.5
20260508031938 63 315 7.8 12.2 0.00 0.00 0.00 59 1021.7
20260508031436 62 331 7.8 12.2 0.00 0.00 0.00 60 1021.9
20260508030931 62 345 6.1 13.9 0.00 0.00 0.00 60 1021.6
20260508030428 62 293 8.7 12.2 0.00 0.00 0.00 61 1021.8
20260508025926 62 314 7.8 11.3 0.00 0.00 0.00 63 1021.8
20260508025422 61 309 6.1 8.7 0.00 0.00 0.00 64 1021.5
20260508024919 61 321 8.7 12.2 0.00 0.00 0.00 65 1021.6
20260508024416 60 301 7.8 12.2 0.00 0.00 0.00 67 1021.4
20260508023912 60 295 6.1 13.0 0.00 0.00 0.00 68 1021.3
20260508023409 60 324 9.6 11.3 0.00 0.00 0.00 69 1021.5
20260508022906 60 311 8.7 9.6 0.00 0.00 0.00 70 1021.3
20260508022401 60 301 6.1 8.7 0.00 0.00 0.00 70 1021.2
20260508021859 60 272 5.2 8.7 0.00 0.00 0.00 70 1021.3
20260508021355 60 334 5.2 7.8 0.00 0.00 0.00 70 1021.3
20260508020851 60 304 7.0 8.7 0.00 0.00 0.00 70 1021.4
20260508020349 60 327 7.0 11.3 0.00 0.00 0.00 70 1021.3
20260508015846 60 300 6.1 7.8 0.00 0.00 0.00 71 1021.3
20260508015344 60 285 6.1 9.6 0.00 0.00 0.00 71 1021.2
20260508014839 60 275 7.0 9.6 0.00 0.00 0.00 70 1021.1
20260508014337 61 315 6.1 8.7 0.00 0.00 0.00 70 1021.4
20260508013837 61 321 7.8 11.3 0.00 0.00 0.00 69 1021.2
20260508013334 61 318 7.8 13.0 0.00 0.00 0.00 69 1021.2
20260508012832 61 311 8.7 12.2 0.00 0.00 0.00 69 1021.5
20260508012329 61 324 7.8 11.3 0.00 0.00 0.00 69 1021.5
20260508011827 61 307 9.6 12.2 0.00 0.00 0.00 69 1021.2
20260508011324 61 320 9.6 12.2 0.00 0.00 0.00 69 1021.2
20260508010821 61 327 8.7 9.6 0.00 0.00 0.00 69 1021.1
20260508010319 61 310 7.0 8.7 0.00 0.00 0.00 69 1021.1
20260508005815 61 312 7.8 11.3 0.00 0.00 0.00 69 1021.3
20260508005312 62 316 12.2 14.8 0.00 0.00 0.00 69 1021.2
20260508004808 61 323 10.4 12.2 0.00 0.00 0.00 70 1021.3
20260508004304 61 304 5.2 12.2 0.00 0.00 0.00 71 1021.6
20260508003801 61 301 6.1 8.7 0.00 0.00 0.00 71 1021.5
20260508003259 61 321 7.0 9.6 0.00 0.00 0.00 71 1021.3
20260508002755 61 295 6.1 9.6 0.00 0.00 0.00 72 1021.3
20260508002252 61 318 9.6 11.3 0.00 0.00 0.00 72 1021.5
20260508001748 61 332 7.8 12.2 0.00 0.00 0.00 73 1021.6
20260508001244 61 300 7.8 12.2 0.00 0.00 0.00 73 1021.7
20260508000740 61 255 7.0 11.3 0.00 0.00 0.00 73 1021.7
20260508000238 62 260 9.6 13.9 0.00 0.00 0.00 73 1021.6
20260507235734 62 315 7.8 14.8 0.00 0.00 0.00 73 1021.4
20260507235231 61 298 7.8 11.3 0.00 0.00 0.00 74 1021.5
20260507234728 61 307 7.8 11.3 0.00 0.00 0.00 75 1021.4
20260507234225 61 287 6.1 13.0 0.00 0.00 0.00 75 1021.4
20260507233721 61 299 8.7 13.9 0.00 0.00 0.00 77 1021.9
20260507233219 61 282 9.6 13.0 0.00 0.00 0.00 78 1021.6
20260507232716 61 296 13.0 14.8 0.00 0.00 0.00 79 1021.7
20260507232213 61 299 7.0 11.3 0.00 0.00 0.00 79 1021.6
20260507231710 61 339 7.8 12.2 0.00 0.00 0.00 80 1021.6
20260507231207 61 319 7.8 13.0 0.00 0.00 0.00 80 1021.4
20260507230703 61 319 11.3 13.0 0.00 0.00 0.00 80 1021.5
20260507230201 61 312 10.4 13.0 0.00 0.00 0.00 81 1021.7
20260507225700 61 337 7.8 9.6 0.00 0.00 0.00 81 1021.7
20260507225157 61 311 8.7 11.3 0.00 0.00 0.00 81 1021.9
20260507224653 61 331 9.6 12.2 0.00 0.00 0.00 82 1021.9
20260507224149 61 297 7.0 13.0 0.00 0.00 0.00 82 1021.7
20260507223645 61 309 7.8 9.6 0.00 0.00 0.00 82 1021.9
20260507223143 61 313 7.8 12.2 0.00 0.00 0.00 83 1021.9
20260507222639 61 310 6.1 11.3 0.00 0.00 0.00 83 1021.9
20260507222136 61 316 7.8 13.0 0.00 0.00 0.00 83 1022.0
20260507221632 61 308 7.8 12.2 0.00 0.00 0.00 83 1022.2
20260507221129 61 325 7.8 13.0 0.00 0.00 0.00 83 1022.3
20260507220626 61 314 7.8 13.0 0.00 0.00 0.00 82 1022.2
20260507220124 61 9 6.1 11.3 0.00 0.00 0.00 82 1022.3
20260507215619 61 326 7.0 11.3 0.00 0.00 0.00 82 1022.2
20260507215117 61 342 7.0 11.3 0.00 0.00 0.00 82 1022.5
20260507214614 61 322 9.6 11.3 0.00 0.00 0.00 82 1022.6
20260507214110 61 312 7.8 11.3 0.00 0.00 0.00 83 1022.7
20260507213607 61 302 7.0 11.3 0.00 0.00 0.00 83 1022.6
20260507213104 62 302 7.0 11.3 0.00 0.00 0.00 82 1022.7
20260507212600 62 305 5.2 7.8 0.00 0.00 0.00 82 1022.8
20260507212057 62 339 7.8 11.3 0.00 0.00 0.00 81 1022.9
20260507211554 62 317 5.2 12.2 0.00 0.00 0.00 81 1022.7
20260507211050 62 349 9.6 11.3 0.00 0.00 0.00 81 1022.6
20260507210547 62 328 8.7 11.3 0.00 0.00 0.00 81 1022.4
20260507210044 62 347 7.8 13.0 0.00 0.00 0.00 81 1022.7
20260507205540 62 311 7.8 13.0 0.00 0.00 0.00 81 1022.7
20260507205037 62 286 7.0 9.6 0.00 0.00 0.00 81 1022.4
20260507204533 62 342 5.2 9.6 0.00 0.00 0.00 81 1022.5
20260507204031 62 295 6.1 8.7 0.00 0.00 0.00 81 1022.7
20260507203529 62 319 5.2 11.3 0.00 0.00 0.00 81 1022.5
20260507203026 62 307 5.2 7.8 0.00 0.00 0.00 80 1022.5
20260507202521 62 290 4.3 7.8 0.00 0.00 0.00 80 1022.8
20260507202018 62 307 4.3 7.8 0.00 0.00 0.00 80 1022.6
20260507201514 62 295 4.3 6.1 0.00 0.00 0.00 79 1022.8
20260507201010 62 315 3.5 4.3 0.00 0.00 0.00 78 1022.7
20260507200505 62 320 5.2 6.1 0.00 0.00 0.00 78 1022.6
20260507200001 62 319 4.3 5.2 0.00 0.00 0.00 77 1022.6
20260507195459 62 324 0.9 4.3 0.00 0.00 0.00 75 1022.8
20260507194956 61 158 0.0 1.7 0.00 0.00 0.00 75 1022.6
20260507194453 61 140 0.0 1.7 0.00 0.00 0.00 74 1022.8
20260507193948 62 152 0.0 0.0 0.00 0.00 0.00 73 1022.7
20260507193446 62 164 0.0 0.9 0.00 0.00 0.00 73 1022.6
20260507192942 62 155 0.9 2.6 0.00 0.00 0.00 72 1022.5
20260507192438 62 321 2.6 2.6 0.00 0.00 0.00 72 1022.5
20260507191936 62 351 2.6 4.3 0.00 0.00 0.00 72 1022.5
20260507191432 62 343 2.6 2.6 0.00 0.00 0.00 74 1022.5
20260507190928 62 37 4.3 6.1 0.00 0.00 0.00 75 1022.5
20260507190426 61 355 1.7 4.3 0.00 0.00 0.00 76 1022.6
20260507185925 61 280 3.5 4.3 0.00 0.00 0.00 77 1022.3
20260507185422 61 297 2.6 2.6 0.00 0.00 0.00 76 1022.7
20260507184919 61 276 2.6 4.3 0.00 0.00 0.00 77 1022.4
20260507184416 61 135 0.0 0.9 0.00 0.00 0.00 76 1022.3
20260507183914 62 109 0.9 0.9 0.00 0.00 0.00 75 1022.3
20260507183410 62 113 0.9 0.9 0.00 0.00 0.00 75 1022.3
20260507182908 62 80 0.9 1.7 0.00 0.00 0.00 75 1022.2
20260507182403 62 107 0.9 0.9 0.00 0.00 0.00 74 1022.2
20260507181900 62 117 0.0 0.9 0.00 0.00 0.00 73 1022.2
20260507181356 62 132 0.0 0.9 0.00 0.00 0.00 73 1022.2
20260507180853 62 231 0.9 1.7 0.00 0.00 0.00 73 1021.9
20260507180350 62 202 0.9 1.7 0.00 0.00 0.00 73 1021.9
20260507175845 62 216 0.9 0.9 0.00 0.00 0.00 73 1022.0
20260507175343 62 126 0.9 0.9 0.00 0.00 0.00 72 1021.9
20260507174840 63 128 0.0 0.9 0.00 0.00 0.00 72 1021.8
20260507174338 63 135 0.0 0.0 0.00 0.00 0.00 72 1022.0
20260507173835 63 117 0.0 0.9 0.00 0.00 0.00 71 1021.8
20260507173332 63 153 0.0 0.0 0.00 0.00 0.00 71 1021.8
20260507172828 63 219 0.9 1.7 0.00 0.00 0.00 71 1021.8
20260507172325 63 208 0.9 1.7 0.00 0.00 0.00 71 1021.9
20260507171821 64 218 0.0 0.0 0.00 0.00 0.00 70 1021.7
20260507171318 64 168 0.0 0.0 0.00 0.00 0.00 69 1021.7
20260507170815 64 157 0.0 0.0 0.00 0.00 0.00 69 1021.7
20260507170311 65 159 0.0 0.0 0.00 0.00 0.00 68 1021.7
20260507165807 65 155 0.0 0.0 0.00 0.00 0.00 68 1021.7
20260507165306 65 148 0.0 0.0 0.00 0.00 0.00 67 1021.7
20260507164759 66 166 0.0 0.0 0.00 0.00 0.00 66 1021.8
20260507164257 66 154 0.0 0.0 0.00 0.00 0.00 66 1021.7
20260507163754 66 192 0.9 1.7 0.00 0.00 0.00 66 1021.8
20260507163252 66 229 1.7 1.7 0.00 0.00 0.00 65 1021.8
20260507162747 66 181 0.9 1.7 0.00 0.00 0.00 65 1021.8
20260507162243 66 192 0.9 1.7 0.00 0.00 0.00 65 1021.6
20260507161741 66 214 1.7 2.6 0.00 0.00 0.00 64 1021.7
20260507161237 67 183 1.7 2.6 0.00 0.00 0.00 63 1021.6
20260507160732 67 209 2.6 2.6 0.00 0.00 0.00 63 1021.6
20260507160229 67 200 1.7 2.6 0.00 0.00 0.00 62 1021.8
20260507155725 67 193 1.7 1.7 0.00 0.00 0.00 63 1021.6
20260507155221 67 192 2.6 2.6 0.00 0.00 0.00 63 1021.7
20260507154719 68 238 2.6 2.6 0.00 0.00 0.00 62 1021.6
20260507154216 68 203 2.6 4.3 0.00 0.00 0.00 64 1021.6
20260507153712 68 200 3.5 4.3 0.00 0.00 0.00 62 1021.6
20260507153209 68 193 3.5 5.2 0.00 0.00 0.00 62 1021.8
20260507152705 68 213 3.5 4.3 0.00 0.00 0.00 63 1021.7
20260507152201 68 193 3.5 5.2 0.00 0.00 0.00 63 1021.7
20260507151657 68 185 3.5 6.1 0.00 0.00 0.00 63 1021.9
20260507151154 68 186 1.7 5.2 0.00 0.00 0.00 64 1021.8
20260507150651 68 201 6.1 6.1 0.00 0.00 0.00 64 1021.7
20260507150148 68 202 4.3 6.1 0.00 0.00 0.00 64 1021.9
20260507145643 68 170 4.3 7.0 0.00 0.00 0.00 64 1022.0
20260507145141 68 206 6.1 7.0 0.00 0.00 0.00 64 1021.6
20260507144637 68 171 2.6 5.2 0.00 0.00 0.00 64 1021.6
20260507144136 68 172 4.3 5.2 0.00 0.00 0.00 65 1021.9
20260507143632 68 180 6.1 7.8 0.00 0.00 0.00 64 1021.8
20260507143129 69 148 3.5 6.1 0.00 0.00 0.00 64 1021.9
20260507142624 69 199 4.3 6.1 0.00 0.00 0.00 64 1021.8
20260507142122 69 187 6.1 7.8 0.00 0.00 0.00 62 1021.6